Content
SEND FEEDBACK

Daily
Averages
Monthly
Summary
United States of America

HAZELTON, NORTH DAKOTA


Home > North America > United States > North Dakota
Elevation: 1980 feet     Latitude: 46 29N     Longitude: 100 17W

WEATHER
 
SELECT A DAY
Number of Records: 204,265;   Date Range: 1/1/95 - 7/22/14
 
SHARE

PRINT THIS DATA

[ ← Previous Day ]
WEATHER ALMANAC - JANUARY 31, 2013
[ Next Day → ]
[ °C ]   °F
Weather ElementAverageHighLow
Temperature-11.6 °F-7.1 °F (2:52 pm)-17 °F (6:52 am)
Dewpoint-19.9 °F-17 °F (1:37 am)-25.1 °F (6:52 am)
Humidity66.6 %71 % (1:37 am)59 % (12:52 pm)
Barometer30.32 in30.50 in (11:52 am)30.05 in (1:37 am)
Wind Speed14.7 mph21.9 mph (2:01 am)
Wind Gust32.2 mph (2:14 am)
Weather ElementAverage
Visibility8.1 mi
Wind DirectionWNW (283.5 °)

Weather ElementTotal
Precipitation---
Heating Degree Days77.1 (Base 65)
Averaged from 34 records on January 31, 2013
WEATHER CONDITIONS BREAKOUT
WIND DIRECTION BREAKOUT
WEATHER BY HOUR - JANUARY 31, 2013
[ °C ]   °F
Local TimeTemperatureDewpointHumidityBarometerVisibilityWind DirectionWind SpeedGust SpeedPrecipitationEventsConditions
1:37 AM-9.9 °F-17.0 °F71 %30.05 in3.0 miNW (320°)16.1 mph0.00 inSnowLight Snow
1:52 AM-9.9 °F-17.0 °F71 %30.21 in3.0 miNNW (330°)16.1 mph24.2 mph0.00 inSnowLight Snow
2:01 AM-9.9 °F-17.0 °F71 %30.06 in2.5 miNW (320°)21.9 mph0.00 inSnowLight Snow
2:14 AM-11.0 °F-18.0 °F71 %30.07 in3.0 miNNW (330°)19.6 mph32.2 mph0.00 inSnowLight Snow
2:52 AM-11.0 °F-18.9 °F68 %30.25 in5.0 miNW (320°)20.7 mph29.9 mph0.00 inOvercast
3:04 AM-11.9 °F-20.0 °F67 %30.10 in6.0 miNNW (330°)16.1 mph26.5 mph0.00 inOvercast
3:22 AM-11.9 °F-18.9 °F71 %30.10 in3.0 miNNW (330°)15.0 mph25.3 mph0.00 inSnowLight Snow
3:29 AM-11.9 °F-18.9 °F71 %30.11 in2.5 miNW (320°)16.1 mph25.3 mph0.00 inSnowLight Snow
3:52 AM-13.0 °F-20.0 °F71 %30.29 in3.0 miNW (320°)16.1 mph21.9 mph0.00 inOvercast
4:02 AM-13.0 °F-20.9 °F68 %30.12 in7.0 miNW (310°)20.7 mph27.6 mph0.00 inOvercast
4:29 AM-14.1 °F-22.0 °F68 %30.14 in9.0 miNW (310°)19.6 mph28.8 mph0.00 inOvercast
4:52 AM-15.0 °F-23.1 °F67 %30.32 in10.0 miNW (320°)17.3 mph25.3 mph0.00 inScattered Clouds
5:13 AM-15.0 °F-23.1 °F67 %30.16 in10.0 miNW (310°)15.0 mph26.5 mphMostly Cloudy
5:52 AM-16.1 °F-24.0 °F67 %30.36 in10.0 miNW (320°)13.8 mph31.1 mphOvercast
6:33 AM-16.1 °F-24.0 °F67 %30.22 in10.0 miNW (320°)19.6 mph27.6 mphOvercast
6:52 AM-17.0 °F-25.1 °F67 %30.40 in10.0 miNW (320°)17.3 mph24.2 mphOvercast
7:52 AM-16.1 °F-24.0 °F67 %30.43 in10.0 miNW (320°)20.7 mph28.8 mphClear
8:52 AM-15.0 °F-23.1 °F67 %30.46 in10.0 miNW (320°)12.7 mphClear
9:52 AM-13.0 °F-23.1 °F61 %30.48 in10.0 miNNW (330°)17.3 mph26.5 mphClear
10:52 AM-11.9 °F-20.9 °F64 %30.49 in10.0 miNNW (330°)21.9 mph28.8 mphClear
11:52 AM-9.9 °F-20.0 °F61 %30.50 in10.0 miNW (310°)18.4 mph24.2 mphPartly Cloudy
12:52 PM-8.0 °F-18.9 °F59 %30.48 in10.0 miWNW (300°)17.3 mph25.3 mphClear
1:32 PM-8.0 °F-17.0 °F65 %30.31 in7.0 miWNW (290°)17.3 mph21.9 mphMostly Cloudy
1:52 PM-8.0 °F-18.0 °F61 %30.47 in10.0 miWNW (290°)18.4 mphScattered Clouds
2:52 PM-7.1 °F-17.0 °F62 %30.46 in10.0 miWNW (300°)13.8 mph21.9 mphScattered Clouds
3:52 PM-7.1 °F-17.0 °F62 %30.46 in10.0 miWNW (300°)13.8 mphClear
4:52 PM-7.1 °F-17.0 °F62 %30.45 in10.0 miWNW (300°)12.7 mphClear
5:52 PM-8.0 °F-18.0 °F61 %30.45 in10.0 miWNW (300°)13.8 mph19.6 mphClear
6:52 PM-8.0 °F-18.0 °F61 %30.45 in10.0 miWNW (290°)10.4 mphClear
7:52 PM-9.0 °F-18.0 °F65 %30.43 in10.0 miWNW (290°)4.6 mphClear
8:52 PM-11.9 °F-18.9 °F71 %30.43 in10.0 miWSW (240°)4.6 mphClear
9:52 PM-13.0 °F-20.0 °F71 %30.41 in10.0 miCalmClear
10:52 PM-14.1 °F-20.9 °F71 %30.39 in10.0 miCalmClear
11:52 PM-13.0 °F-20.0 °F71 %30.38 in10.0 miCalmClear
Hourly data recorded from KBIS, located miles away from Hazelton, North Dakota







STORIES FROM OUR PARTNERS